Wind_Speed
30 29 28 27 26 25 24 23 23 23 23 22 22 23 23 23 23 23 24 25 26 26 27 28 29 30 31 32 33 34 35 35 36 36 36 36 36 35 34 32 31 30 29
32 31 30 29 28 27 26 25 25 25 25 25 25 25 25 25 25 26 26 27 28 29 29 30 31 32 33 34 35 36 37 37 38 38 38 37 36 35 34 33 32 31 29
34 33 32 31 30 29 28 28 27 27 27 27 27 27 27 27 27 28 28 29 30 31 31 32 33 34 35 36 37 38 38 39 39 39 39 38 38 36 35 34 32 31 30
35 34 33 32 32 31 31 30 29 29 29 29 29 29 29 29 30 30 31 32 32 33 34 35 35 36 37 38 38 39 40 40 41 40 39 39 39 37 36 34 33 32 31
36 36 35 34 34 33 33 33 32 32 32 32 32 32 32 32 32 33 33 34 35 36 37 37 38 38 39 39 40 41 41 42 41 41 40 40 39 38 36 35 34 33 32
37 37 37 37 36 36 35 35 35 35 34 34 34 34 34 34 34 34 35 35 36 37 38 39 39 40 40 41 42 42 42 42 42 42 41 41 39 38 37 35 34 34 33
39 38 37 37 38 38 37 37 37 37 36 36 36 36 36 36 36 37 37 37 38 38 39 40 41 41 42 42 42 42 43 43 43 43 42 41 40 39 37 36 36 34 33
41 40 40 39 39 39 39 39 39 38 38 38 37 37 37 37 37 38 39 39 40 41 41 42 42 42 43 43 43 43 44 44 44 44 43 42 41 39 38 38 36 35 33
43 43 42 41 41 41 41 40 40 39 38 38 38 39 39 39 39 39 40 41 41 42 42 43 43 44 44 45 45 45 45 45 44 44 43 42 41 40 39 38 37 35 33
44 43 43 42 41 41 41 41 41 40 39 39 40 40 40 40 40 40 40 41 42 43 44 44 45 45 46 46 46 46 46 46 45 44 43 42 42 41 40 39 37 35 34
44 44 43 43 43 43 42 42 41 41 40 41 41 41 41 41 42 42 42 43 43 44 45 45 46 46 46 47 47 47 46 45 45 44 43 42 42 41 40 38 36 35 33
44 44 44 43 43 42 41 41 41 42 41 41 40 41 42 42 43 43 43 44 44 44 45 46 47 47 47 47 46 46 45 45 45 44 43 42 41 40 39 37 35 34 32
43 43 43 44 43 43 42 42 41 40 40 40 40 41 42 43 43 43 43 44 44 45 46 46 47 47 46 46 46 46 46 45 44 43 43 42 40 39 37 35 34 33 31
43 44 44 43 43 43 42 41 40 40 40 40 41 41 42 42 43 44 44 45 45 45 46 46 47 46 46 46 46 46 45 45 44 43 42 40 39 38 37 35 33 32 30
44 45 44 43 42 41 40 40 40 41 41 42 42 42 42 43 43 44 44 45 45 45 45 46 46 46 46 46 46 45 45 44 43 42 40 39 38 37 35 33 32 31 29
39 41 42 42 41 41 41 42 42 42 42 43 44 43 43 43 44 44 45 45 45 45 45 45 45 45 46 46 45 44 43 42 41 40 39 38 37 35 33 32 31 30 28
39 40 40 41 42 43 42 42 43 42 42 43 44 44 44 44 44 44 44 44 45 45 45 45 45 45 45 45 44 43 42 41 40 39 38 36 35 34 33 32 31 29 28
41 42 42 42 42 43 43 43 42 42 42 43 43 44 44 43 44 44 44 45 45 45 45 44 44 44 43 43 43 42 40 39 38 37 36 35 35 33 32 31 30 28 27
42 42 42 43 43 43 43 44 43 43 43 43 43 44 44 44 44 44 44 44 44 44 43 43 43 43 42 42 41 40 39 38 36 35 34 34 33 32 31 29 28 27 26
42 43 43 43 43 44 45 45 45 45 44 44 44 44 44 44 44 43 43 43 43 42 42 42 41 41 40 40 39 38 37 36 35 34 33 32 31 30 30 29 28 26 26
44 44 45 45 45 46 46 45 45 45 44 44 44 43 42 43 43 42 42 42 41 41 41 40 39 39 38 38 37 36 35 34 33 32 32 31 29 28 27 26 26 25 25
46 46 46 45 46 46 46 45 44 44 44 44 43 43 43 42 41 41 41 41 40 40 39 39 38 37 36 36 34 34 33 32 32 31 30 29 27 26 25 25 25 25 25
47 47 47 46 46 45 45 45 45 45 44 44 43 43 42 41 41 41 40 40 39 39 38 37 37 35 34 34 33 33 32 31 30 29 28 27 26 25 25 25 24 24 25
47 46 46 46 46 46 46 45 45 45 44 44 43 42 42 41 41 40 40 39 38 38 37 36 35 34 34 33 32 31 31 30 29 28 27 26 25 25 24 24 24 25 25
46 46 46 45 45 45 45 45 45 44 44 44 43 42 41 41 40 40 39 38 38 37 37 36 35 34 33 32 32 31 30 29 28 27 26 26 25 25 24 25 25 25 25
46 46 45 45 45 44 45 44 44 44 43 43 42 41 41 41 40 40 39 38 37 37 36 35 33 33 32 32 31 30 30 29 27 27 26 26 26 25 25 25 25 25 25
Wind_Direction
235 237 239 242 244 246 248 250 252 255 257 258 260 262 264 266 268 271 275 278 282 285 289 292 294 295 297 299 301 303 306 308 309 311 311 312 312 311 309 308 308 307 308
236 238 240 242 245 247 249 251 253 256 258 259 260 263 265 267 270 273 276 279 282 285 288 291 293 295 297 299 300 302 304 306 307 309 309 309 309 308 306 305 305 305 305
237 239 241 243 245 248 250 252 254 256 258 260 261 264 266 269 271 274 277 279 282 285 288 290 292 294 296 298 299 301 303 304 306 307 307 307 307 305 304 303 303 303 303
237 240 242 245 247 248 251 253 254 256 259 260 262 264 267 269 272 274 277 280 283 285 288 290 292 294 296 297 299 300 302 303 304 305 305 305 304 303 302 301 301 301 301
239 242 244 247 249 250 252 254 255 257 258 261 263 266 268 270 273 275 278 281 283 285 287 289 292 293 295 296 297 299 300 302 302 303 303 302 301 300 299 299 298 298 298
240 243 245 248 250 252 253 255 256 258 260 262 264 267 270 272 275 277 279 282 284 285 287 289 291 293 294 295 297 298 299 300 300 301 301 300 298 297 297 296 296 295 295
240 242 245 247 250 252 253 255 257 259 261 263 265 268 271 273 276 278 280 282 284 286 288 290 291 293 294 295 296 298 299 299 299 299 299 298 296 295 295 294 294 293 293
241 242 245 249 251 252 254 256 257 260 263 265 267 269 272 274 277 279 281 282 284 286 288 290 291 293 294 295 295 297 297 298 297 297 297 296 295 294 294 293 292 290 290
243 244 247 250 251 253 255 257 259 261 262 265 268 270 272 275 277 279 281 283 285 286 288 289 291 292 293 294 295 295 296 296 295 295 295 294 293 292 292 291 290 288 286
244 245 248 250 251 253 256 257 259 262 264 266 269 271 273 276 278 278 280 283 285 286 288 289 290 292 293 293 294 294 294 294 294 293 293 292 291 290 290 289 287 286 284
247 248 250 251 252 254 256 256 259 262 265 267 269 272 274 277 278 279 280 282 284 286 288 289 290 291 291 292 293 293 293 293 293 292 291 291 290 289 288 286 285 284 282
250 252 254 254 255 255 256 257 261 264 266 267 270 273 276 278 279 280 282 283 284 286 287 288 289 290 291 292 292 292 292 292 292 291 290 290 289 287 286 285 284 282 280
250 251 253 254 254 254 257 260 263 264 266 268 270 273 276 278 279 281 282 283 285 286 287 288 289 290 291 291 291 291 291 291 291 290 289 288 287 286 285 283 282 281 278
251 253 254 254 257 258 260 261 263 264 267 270 272 274 277 278 279 281 282 283 285 286 287 287 288 289 289 290 291 291 291 290 290 289 288 287 285 283 282 281 279 278 275
254 254 255 257 258 257 260 263 265 268 270 272 274 275 276 277 278 280 282 283 284 285 285 286 287 287 289 290 290 290 290 289 289 288 287 285 284 283 281 279 278 275 272
255 256 257 258 257 259 261 264 267 269 271 272 273 274 275 276 278 279 281 282 283 284 284 285 286 287 289 290 290 290 289 288 288 287 286 284 284 283 280 277 275 272 268
258 258 258 258 258 261 264 266 268 269 270 271 272 273 274 277 278 279 280 281 282 283 284 284 286 287 288 289 289 289 289 287 287 286 285 283 282 281 279 276 273 269 266
259 259 260 261 262 263 265 267 268 268 269 271 272 273 275 276 277 278 279 280 281 282 284 285 286 286 287 287 288 287 287 287 286 286 284 282 280 279 278 275 271 266 263
261 260 260 261 262 264 266 267 268 269 271 272 272 273 274 275 276 277 279 280 281 282 284 285 286 286 287 287 287 287 287 286 286 285 284 282 280 278 276 273 269 264 261
261 262 263 263 263 264 265 267 269 270 271 271 271 272 273 274 275 277 279 280 281 282 284 285 285 286 286 286 286 286 286 286 285 284 283 281 279 277 274 270 267 263 261
262 262 263 263 263 264 265 266 268 269 269 269 270 271 272 274 275 277 278 279 281 282 283 284 285 286 286 286 286 286 285 285 285 284 282 280 278 275 271 268 265 261 260
262 262 262 262 263 263 264 264 265 266 267 269 269 271 272 274 274 276 278 279 280 281 283 283 284 284 284 284 284 285 285 285 284 282 280 278 276 272 269 266 263 260 259
262 261 261 261 261 261 262 262 263 265 265 266 268 269 270 272 274 276 277 278 279 280 281 282 283 282 282 283 283 284 284 283 283 281 278 276 274 272 270 266 263 261 259
262 261 262 261 261 261 262 262 262 262 263 265 266 268 270 272 273 275 276 277 278 279 280 281 281 280 280 281 282 282 281 281 281 279 276 274 272 270 269 266 264 262 261
262 261 261 261 260 260 260 260 260 261 262 264 265 268 269 271 272 274 275 276 277 277 278 279 278 278 278 279 279 279 279 279 279 277 275 273 271 269 267 266 265 263 262
262 261 260 259 259 259 259 260 260 261 262 264 265 267 268 269 271 272 273 275 275 275 276 276 276 276 276 277 277 277 277 276 276 275 273 272 270 268 266 266 265 263 262
Height
5837 5839 5840 5842 5843 5844 5845 5845 5846 5847 5847 5847 5848 5848 5848 5847 5847 5847 5846 5845 5844 5843 5842 5840 5838 5836 5834 5832 5829 5826 5823 5821 5817 5814 5810 5807 5804 5800 5797 5793 5790 5787 5785
5831 5833 5835 5837 5838 5839 5840 5841 5841 5842 5842 5843 5843 5843 5843 5842 5842 5841 5841 5840 5839 5838 5836 5835 5832 5830 5828 5826 5823 5820 5818 5815 5811 5808 5805 5801 5798 5794 5791 5788 5785 5782 5779
5826 5828 5830 5831 5833 5834 5835 5835 5836 5836 5837 5837 5837 5837 5837 5837 5837 5836 5835 5834 5833 5832 5830 5828 5826 5824 5822 5819 5817 5814 5811 5808 5805 5802 5798 5795 5791 5788 5785 5782 5779 5776 5773
5819 5822 5824 5825 5827 5828 5829 5830 5830 5831 5831 5832 5832 5832 5832 5831 5831 5830 5829 5828 5827 5825 5824 5822 5820 5817 5815 5813 5810 5807 5804 5801 5798 5795 5792 5788 5785 5782 5778 5776 5773 5770 5767
5813 5815 5818 5819 5821 5822 5823 5824 5824 5825 5825 5826 5826 5826 5825 5825 5824 5824 5823 5822 5820 5819 5817 5815 5813 5810 5808 5805 5802 5799 5796 5794 5791 5788 5784 5781 5778 5775 5772 5769 5766 5763 5761
5806 5808 5810 5812 5814 5816 5817 5817 5818 5818 5819 5819 5819 5819 5819 5818 5818 5817 5815 5814 5813 5811 5809 5807 5805 5803 5800 5798 5795 5792 5789 5786 5783 5780 5777 5773 5770 5767 5764 5762 5759 5756 5754
5798 5801 5803 5805 5807 5808 5809 5810 5810 5811 5811 5812 5812 5812 5812 5811 5810 5809 5808 5806 5805 5803 5801 5799 5797 5795 5792 5790 5787 5784 5781 5778 5774 5771 5768 5765 5762 5759 5757 5754 5752 5749 5747
5791 5793 5795 5797 5798 5800 5801 5802 5803 5803 5804 5804 5805 5804 5804 5804 5803 5801 5800 5798 5797 5795 5793 5791 5789 5786 5783 5781 5778 5775 5772 5769 5766 5763 5760 5757 5754 5751 5749 5746 5744 5741 5739
5783 5785 5787 5789 5790 5792 5793 5794 5795 5795 5796 5796 5797 5797 5796 5796 5795 5794 5792 5790 5788 5786 5784 5782 5780 5777 5774 5772 5769 5766 5763 5760 5757 5754 5751 5748 5745 5742 5740 5738 5736 5733 5731
5775 5777 5779 5781 5782 5783 5785 5786 5786 5787 5788 5788 5788 5788 5788 5787 5786 5786 5784 5782 5780 5778 5776 5773 5771 5768 5765 5763 5760 5757 5754 5751 5747 5744 5741 5739 5736 5733 5731 5729 5727 5725 5723
5766 5768 5770 5772 5774 5775 5776 5777 5778 5778 5779 5779 5779 5779 5778 5778 5777 5776 5775 5773 5771 5769 5766 5764 5761 5759 5756 5753 5750 5747 5744 5741 5738 5735 5732 5729 5726 5724 5722 5720 5718 5716 5715
5758 5760 5762 5764 5765 5766 5767 5768 5769 5769 5770 5770 5770 5770 5769 5769 5768 5766 5765 5763 5762 5759 5757 5754 5751 5748 5746 5743 5740 5737 5734 5731 5728 5725 5722 5719 5716 5714 5712 5710 5709 5707 5706
5749 5751 5753 5754 5756 5757 5758 5759 5759 5760 5760 5760 5760 5760 5759 5759 5758 5756 5755 5753 5752 5750 5747 5744 5741 5738 5735 5733 5730 5726 5723 5720 5717 5714 5712 5709 5706 5704 5703 5701 5700 5699 5698
5740 5741 5743 5745 5746 5747 5748 5748 5749 5750 5750 5750 5750 5749 5749 5748 5747 5746 5745 5743 5742 5740 5737 5734 5730 5728 5725 5722 5719 5716 5713 5710 5707 5704 5701 5699 5696 5695 5693 5692 5690 5690 5689
5730 5731 5733 5734 5735 5737 5738 5738 5739 5740 5740 5740 5740 5739 5738 5737 5736 5735 5734 5732 5731 5729 5727 5723 5720 5717 5714 5711 5708 5705 5702 5699 5696 5693 5691 5689 5687 5685 5684 5682 5681 5681 5680
5719 5721 5722 5723 5725 5726 5727 5728 5728 5729 5729 5729 5729 5728 5727 5726 5725 5724 5722 5721 5719 5717 5716 5713 5709 5706 5703 5701 5698 5694 5691 5689 5686 5683 5681 5679 5677 5676 5674 5673 5673 5672 5672
5709 5710 5711 5713 5714 5715 5716 5717 5717 5717 5718 5718 5717 5717 5716 5715 5714 5713 5711 5710 5708 5706 5704 5702 5699 5696 5693 5690 5687 5684 5681 5678 5676 5674 5672 5670 5668 5667 5665 5665 5664 5664 5664
5697 5699 5700 5702 5703 5704 5704 5705 5705 5705 5706 5706 5705 5705 5704 5703 5703 5701 5700 5698 5697 5694 5692 5690 5688 5685 5682 5679 5676 5674 5671 5668 5666 5664 5662 5660 5659 5657 5657 5656 5655 5655 5656
5686 5687 5689 5690 5691 5692 5693 5693 5693 5694 5694 5694 5693 5693 5693 5692 5691 5690 5688 5687 5685 5683 5681 5679 5676 5674 5671 5668 5666 5663 5661 5658 5656 5654 5652 5651 5650 5649 5648 5647 5647 5647 5648
5674 5675 5676 5677 5678 5679 5680 5681 5681 5681 5681 5681 5681 5681 5681 5680 5679 5678 5676 5675 5673 5671 5669 5667 5665 5663 5660 5658 5655 5653 5651 5649 5647 5645 5643 5642 5641 5640 5639 5639 5639 5640 5640
5661 5663 5664 5665 5666 5667 5667 5668 5668 5669 5669 5669 5669 5669 5668 5668 5667 5666 5665 5663 5662 5660 5658 5656 5654 5652 5650 5648 5646 5643 5641 5639 5638 5636 5635 5633 5632 5631 5631 5631 5631 5632 5633
5648 5650 5651 5652 5653 5654 5655 5655 5656 5656 5657 5657 5657 5657 5657 5656 5655 5654 5653 5652 5650 5649 5647 5646 5644 5642 5640 5638 5636 5634 5632 5630 5629 5628 5626 5625 5624 5624 5624 5624 5624 5625 5626
5635 5636 5637 5638 5640 5641 5641 5642 5643 5643 5644 5644 5645 5645 5644 5644 5643 5642 5641 5640 5639 5638 5636 5635 5633 5631 5630 5628 5627 5625 5623 5622 5620 5619 5618 5617 5617 5616 5616 5616 5617 5618 5619
5621 5623 5624 5625 5626 5627 5628 5629 5630 5631 5631 5632 5632 5632 5632 5632 5631 5631 5630 5629 5628 5627 5625 5624 5623 5621 5620 5619 5617 5616 5614 5613 5612 5611 5610 5610 5610 5609 5609 5610 5610 5611 5612
5608 5609 5610 5611 5613 5614 5615 5616 5617 5618 5619 5619 5620 5620 5620 5620 5619 5619 5619 5618 5617 5616 5615 5613 5612 5611 5610 5609 5608 5607 5606 5605 5604 5603 5602 5602 5602 5602 5602 5602 5603 5603 5604
5593 5595 5596 5598 5599 5600 5602 5603 5604 5605 5606 5607 5607 5607 5608 5608 5608 5607 5607 5606 5606 5605 5604 5603 5602 5601 5600 5599 5599 5598 5597 5596 5595 5595 5595 5595 5594 5595 5595 5595 5595 5596 5596